GFSNGP_con_mlcape_021.txt.gz
CAPE
0 0 0 0 0 0 0 0 0 0 0 0 0 2 0 2 23 33 24 7 3 0 0 3 2 6 30 42 3 10 0 4 1 0 0 0 0 0 0 0 0 0 0 0
0 0 0 0 0 0 0 0 0 0 0 0 0 0 0 9 20 16 18 20 0 0 0 2 5 22 31 48 37 101 90 1 8 0 0 0 0 0 0 0 0 0 0 0
0 0 0 0 0 0 0 0 0 0 0 0 7 13 0 21 29 32 65 30 4 9 13 8 9 16 23 15 34 88 95 29 16 1 0 0 0 0 0 0 0 0 0 0
0 0 0 0 0 0 0 0 0 0 0 16 34 15 0 9 30 67 38 14 21 51 27 16 1 3 8 4 7 100 88 43 7 1 0 0 0 0 0 0 0 0 0 0
1 0 0 0 0 0 1 0 0 4 11 7 13 6 0 15 20 13 16 9 10 0 0 0 0 0 0 0 0 35 70 15 3 0 0 0 0 0 0 0 0 0 0 0
5 4 0 0 0 1 4 0 16 15 20 14 11 12 11 0 0 0 1 0 0 0 0 0 0 0 0 0 0 18 29 0 0 0 0 0 0 0 0 0 0 0 0 0
12 8 9 0 3 4 5 7 8 11 30 43 53 55 32 2 0 0 0 0 0 0 0 0 0 0 0 0 18 15 0 0 0 0 0 0 0 0 0 0 0 0 0 0
0 0 0 0 7 4 5 6 34 33 40 71 30 54 16 0 0 0 0 0 0 1 0 0 0 0 0 0 8 11 0 0 0 0 0 0 0 0 0 0 0 0 0 0
0 0 0 0 4 5 22 20 52 41 12 31 70 9 0 0 0 0 0 0 0 1 0 0 0 0 0 1 10 4 0 0 0 0 0 0 0 0 0 0 0 0 0 0
3 0 0 0 2 16 20 14 17 9 6 15 8 6 0 0 0 0 0 0 0 2 0 0 0 0 0 2 13 0 0 0 0 0 1 0 0 0 0 0 0 0 0 0
0 0 1 0 1 4 6 5 7 11 10 6 4 2 2 1 1 0 0 1 6 7 2 3 3 1 0 2 17 0 0 0 0 7 0 0 0 0 0 0 0 0 0 0
0 0 6 1 1 6 5 6 0 2 4 3 8 17 6 6 7 7 10 9 6 12 8 3 5 2 2 0 6 1 3 0 1 2 1 0 0 2 0 0 0 0 0 0
0 0 0 0 3 15 2 1 7 5 4 6 4 6 12 13 11 8 16 3 15 4 6 9 4 7 3 1 0 3 4 1 1 4 0 1 4 1 1 0 0 0 0 0
0 0 0 7 0 4 4 2 0 3 5 5 3 7 9 16 9 21 6 18 10 2 1 1 3 6 2 6 1 2 3 3 0 2 0 2 5 2 0 0 0 0 0 0
1 0 0 1 2 1 1 4 4 4 3 1 1 5 7 7 13 8 20 7 1 3 3 1 3 0 0 6 0 4 4 3 3 3 4 0 0 0 0 0 0 0 0 0
0 0 0 1 3 1 6 4 1 1 6 7 9 10 12 19 18 15 12 7 5 3 2 7 1 0 0 11 1 5 5 4 4 4 3 10 9 2 0 0 0 0 0 0
0 0 0 3 9 9 8 9 8 9 7 9 8 7 6 6 6 5 8 9 6 7 5 1 0 0 0 7 4 2 5 4 4 3 3 0 0 0 0 0 0 0 0 0
0 0 4 8 5 5 6 8 5 9 5 6 6 4 3 2 1 3 3 4 7 3 0 0 0 0 2 3 4 4 4 4 4 3 4 2 0 0 0 0 0 0 1 2
0 3 4 8 8 5 4 2 5 5 4 5 2 2 1 1 1 1 0 1 3 2 0 0 4 1 4 4 3 2 1 1 2 3 3 0 0 0 0 0 0 1 0 0
3 4 0 1 4 1 3 1 5 4 3 1 1 1 2 1 2 1 1 1 2 1 0 1 3 3 4 4 4 3 4 3 3 3 2 0 0 0 1 0 0 0 0 0
1 0 2 0 3 2 0 0 3 3 2 2 1 1 1 2 1 2 2 1 3 4 2 4 3 4 3 3 1 2 2 3 4 3 2 0 0 0 0 0 0 0 0 0
1 1 2 0 4 2 2 0 0 1 2 2 1 1 1 1 2 1 2 1 3 4 3 3 3 4 4 3 2 2 1 1 0 0 0 0 0 0 0 0 0 0 0 0
2 0 2 0 2 2 0 1 2 1 1 1 2 1 1 1 1 1 1 3 3 4 3 4 5 4 3 1 0 0 0 0 0 0 0 0 0 0 0 0 1 3 3 3
2 2 0 1 0 0 1 0 2 2 1 1 0 1 1 1 1 2 2 5 4 3 3 3 5 4 1 1 0 0 0 1 0 0 0 0 0 0 0 0 0 0 0 0
1 1 3 0 0 1 0 3 2 1 0 1 0 0 0 1 0 1 1 2 3 2 3 7 4 4 1 0 0 0 0 1 3 4 2 0 1 4 1 0 0 0 2 1
2 1 1 1 0 0 2 0 3 1 0 1 1 0 0 0 0 0 0 0 1 1 2 1 2 4 2 2 4 3 0 1 4 2 2 2 2 2 0 0 1 0 2 5
0 1 1 1 0 0 1 0 1 1 0 0 0 0 0 1 1 1 1 1 0 0 0 1 2 5 2 4 2 3 2 2 4 9 9 5 4 3 1 0 0 1 2 4

GFSNGP_con_mlcape_024.txt.gz
CAPE
0 0 0 0 0 0 0 0 0 0 0 0 0 0 0 0 1 0 0 0 0 2 4 0 0 5 14 19 2 0 0 4 52 69 23 0 0 0 0 0 0 2 0 0
0 0 0 0 0 0 0 0 0 0 0 0 0 0 0 9 0 0 0 5 20 2 0 0 7 0 0 0 3 0 0 0 6 83 43 0 4 0 0 0 0 0 0 0
0 0 0 0 0 0 0 0 0 0 0 0 0 1 0 0 0 2 6 5 0 0 0 0 0 0 0 0 0 1 0 0 0 55 28 7 0 0 0 0 0 0 0 0
0 0 0 0 0 0 0 0 0 0 0 0 1 0 1 0 24 37 3 0 0 0 0 0 0 0 0 0 0 4 0 0 0 65 8 3 0 0 0 0 0 0 0 0
0 0 0 0 0 0 0 0 0 1 0 0 6 11 0 0 57 34 18 0 2 0 0 0 0 0 0 0 1 0 0 0 29 1 0 0 0 0 1 0 0 0 0 0
0 0 0 0 0 0 0 0 0 0 0 0 16 1 0 0 2 3 46 13 0 0 0 0 0 0 0 0 0 0 0 22 4 0 0 0 0 0 1 0 0 0 0 0
0 0 0 0 0 0 0 0 0 0 2 4 11 12 10 18 14 36 20 0 0 0 0 0 0 0 0 0 2 0 0 9 0 0 0 0 0 0 1 0 0 0 0 0
0 0 0 0 0 0 0 0 2 10 1 8 6 2 0 2 7 4 1 0 0 0 0 0 0 0 0 0 0 0 3 11 7 0 0 0 0 0 1 0 3 0 0 0
0 0 0 0 0 0 0 15 0 7 0 1 4 0 3 6 9 9 0 0 0 4 1 0 2 6 3 0 0 1 0 1 4 0 0 0 0 0 0 6 12 1 0 0
0 0 0 0 0 1 0 0 0 0 4 14 7 3 0 13 9 24 16 19 15 14 6 4 13 6 12 0 1 0 0 0 4 4 0 0 0 0 0 7 15 5 0 0
0 0 0 0 0 0 1 1 0 7 16 5 5 1 8 6 11 9 10 8 8 12 9 0 2 1 3 2 0 2 0 0 0 0 0 2 0 0 0 5 9 2 0 0
0 0 0 0 0 0 0 0 0 1 1 0 1 0 0 2 2 0 0 0 3 0 1 0 0 3 0 0 0 7 0 2 0 1 0 1 0 5 12 6 3 1 0 0
0 0 0 0 0 0 0 8 0 0 0 0 0 0 0 0 0 9 10 3 2 5 8 6 6 0 0 0 8 0 2 3 2 0 3 0 1 8 10 3 0 0 0 0
0 0 0 0 0 0 0 0 0 0 0 1 1 0 0 7 7 10 10 12 12 18 17 9 5 2 2 6 1 0 5 4 6 2 2 1 2 3 4 3 2 0 0 0
0 0 0 0 0 0 0 0 0 0 3 4 4 5 1 4 5 4 3 4 6 6 7 7 3 3 3 2 2 1 1 3 2 3 1 2 3 5 1 0 0 0 0 0
0 0 0 0 0 0 1 1 0 1 3 7 6 0 7 7 5 2 1 2 5 6 8 8 6 4 2 1 0 3 3 2 2 1 4 3 1 1 0 0 0 0 0 0
0 0 0 0 0 2 1 3 1 1 4 2 4 6 4 2 2 1 2 1 1 2 1 4 4 0 0 0 2 3 3 3 3 3 4 5 3 3 1 0 0 0 0 0
0 0 0 1 0 1 0 1 0 1 4 5 3 4 2 2 1 2 1 1 0 1 1 1 1 0 0 0 1 4 3 3 3 2 2 3 2 2 2 2 2 2 4 4
0 0 0 0 1 0 0 0 0 5 0 0 2 2 2 1 2 1 2 2 2 0 0 2 3 2 2 4 4 3 3 3 3 3 3 1 0 0 0 1 0 0 0 0
0 0 0 0 0 0 0 0 0 0 0 0 2 2 1 1 2 1 1 1 2 3 3 3 3 3 3 3 3 3 4 4 3 3 4 3 2 3 2 0 0 0 0 0
0 0 1 0 0 0 0 0 0 0 0 0 2 2 1 1 1 2 1 1 3 3 3 4 3 3 3 2 2 3 3 3 3 2 2 1 1 0 0 0 0 0 0 0
0 0 0 0 0 0 0 0 0 0 0 0 0 1 2 1 1 1 2 2 2 4 3 3 3 4 3 2 2 1 3 0 0 0 0 0 0 0 0 0 0 0 0 0
1 0 0 0 0 0 0 0 0 3 1 0 2 0 1 1 1 1 1 2 2 3 2 3 5 5 3 1 1 1 1 0 0 0 0 0 0 0 0 0 0 0 0 0
0 0 0 0 0 0 0 0 0 0 1 0 0 0 1 1 1 0 1 1 4 2 4 5 5 4 2 1 0 0 0 0 0 0 0 0 0 0 0 0 0 0 0 0
0 0 2 1 0 1 0 0 0 0 0 0 0 0 0 1 0 1 0 0 1 1 1 5 5 4 2 1 0 0 0 0 0 0 0 0 0 0 0 0 0 0 0 0
1 1 0 1 0 0 0 0 1 0 0 0 0 0 0 0 0 0 0 1 0 1 0 1 7 2 1 1 0 0 0 0 0 0 0 0 0 0 0 0 0 3 4 0
2 2 1 0 0 0 0 1 1 2 0 0 0 0 0 0 0 0 0 0 0 0 0 0 0 3 0 0 1 2 1 0 0 0 0 0 0 1 0 0 0 2 4 8

GFSNGP_con_mlcape_027.txt.gz
CAPE
0 0 0 0 0 0 0 0 0 0 0 0 0 0 0 0 0 0 0 0 0 0 0 0 0 0 0 0 0 0 0 0 0 0 0 0 16 8 0 0 0 0 0 0
0 0 0 0 0 0 0 0 0 0 0 0 0 0 0 0 0 0 0 0 0 0 0 0 0 0 0 0 0 0 0 0 0 0 0 0 3 24 3 0 0 0 0 0
0 0 0 0 0 0 0 0 0 0 0 0 0 0 0 0 0 0 1 6 7 0 0 0 0 0 0 0 0 0 0 0 0 0 0 6 6 2 4 0 0 0 2 0
0 0 0 0 0 0 0 0 0 0 0 0 0 0 0 0 0 0 0 0 1 0 0 0 0 0 0 0 0 0 0 0 0 0 0 12 0 0 0 0 0 0 0 0
0 0 0 0 0 0 0 0 0 0 0 0 0 0 0 0 0 0 0 0 2 8 3 0 0 0 0 0 0 0 0 0 0 0 0 0 0 0 0 0 0 0 0 0
0 0 0 0 0 0 0 0 0 0 0 0 0 0 0 0 0 0 0 4 19 7 0 4 0 0 0 0 0 0 0 0 0 0 0 0 0 0 0 0 0 0 0 1
0 0 0 0 0 0 0 0 0 0 0 0 3 5 1 2 0 5 6 3 6 9 3 0 0 0 0 0 0 0 0 0 0 0 0 0 0 0 0 0 0 5 6 0
0 0 0 0 0 0 0 0 0 0 0 0 0 0 0 3 15 8 5 4 9 15 10 17 17 25 0 0 0 0 0 0 0 0 0 0 0 0 0 0 0 4 4 4
0 0 0 0 0 0 0 0 0 0 0 0 0 0 0 1 0 0 0 2 4 6 3 0 11 10 13 18 6 1 0 0 0 0 0 0 9 0 0 0 0 2 6 9
0 0 0 0 0 0 0 0 0 0 0 0 0 0 0 0 0 0 0 0 0 0 0 0 0 0 3 0 5 1 0 0 0 0 0 4 2 0 0 0 0 2 4 8
0 0 0 0 0 0 0 0 0 0 0 0 0 0 0 0 1 1 2 2 2 4 5 7 4 0 0 0 0 0 0 0 0 1 4 3 0 0 0 0 0 1 0 0
0 0 0 0 0 0 0 0 0 0 0 0 0 3 4 3 3 2 2 5 5 3 4 9 14 9 6 8 7 1 1 0 2 0 14 1 0 0 0 8 7 9 6 1
0 0 0 0 0 0 0 0 0 0 0 0 2 2 1 5 4 5 0 1 2 2 3 5 9 8 13 8 4 2 1 6 0 1 2 1 1 6 0 21 19 18 8 2
0 0 0 0 0 0 0 0 0 0 0 2 0 0 2 1 3 4 2 2 1 2 2 3 10 2 5 9 6 6 4 4 1 6 1 3 1 1 3 13 6 12 11 7
0 0 0 0 0 0 0 0 0 0 0 2 1 1 2 3 2 3 2 1 1 1 3 4 5 1 2 2 2 3 3 1 3 2 3 2 1 2 4 9 5 8 7 8
0 0 0 0 0 0 0 0 0 0 2 2 4 2 1 2 2 2 1 2 2 1 1 2 2 1 1 1 1 2 2 4 3 1 1 2 2 0 1 2 0 1 3 2
0 0 0 0 0 0 0 0 1 1 1 4 5 1 1 2 1 2 2 1 2 2 1 2 2 2 2 1 1 3 3 2 5 2 2 2 3 3 3 1 0 0 0 0
0 0 0 0 0 0 0 0 0 0 1 1 2 1 1 1 2 1 1 1 1 2 3 2 2 2 2 2 3 3 3 2 3 3 3 3 2 2 2 1 1 0 0 0
0 0 0 0 0 0 0 0 0 0 0 0 0 0 1 2 2 1 1 1 1 1 3 3 3 2 2 4 3 2 2 2 2 2 3 3 3 3 3 2 0 0 0 0
0 0 0 0 0 0 0 0 1 0 0 0 1 2 1 2 2 1 1 1 2 2 2 3 1 2 2 3 4 3 3 2 3 3 2 1 1 2 0 1 1 0 1 0
0 0 0 0 0 0 0 0 0 0 0 0 0 0 1 0 2 2 1 1 1 2 2 2 2 2 2 2 2 2 2 2 2 2 3 3 3 3 2 1 0 0 0 0
0 0 0 0 0 0 0 0 0 0 0 0 0 0 0 1 2 2 1 2 2 4 1 2 2 4 2 2 2 2 2 2 2 2 2 2 2 2 1 1 1 0 0 0
0 0 0 0 0 0 0 0 0 0 0 0 0 0 0 0 0 1 1 0 5 3 2 4 4 4 3 1 1 1 1 1 1 1 1 1 0 0 0 0 0 0 0 0
0 0 0 0 0 0 0 0 0 0 0 0 0 0 0 0 0 0 0 2 9 2 1 13 8 3 1 1 1 0 0 1 1 0 1 1 1 0 0 0 0 0 0 0
0 0 0 0 0 0 0 0 0 0 0 0 0 0 0 0 0 0 0 0 2 1 0 3 8 3 2 1 0 0 0 0 0 0 0 0 0 0 0 0 0 0 0 0
0 0 0 0 0 0 0 0 0 0 1 0 0 0 0 0 0 0 0 0 0 0 0 1 2 2 2 2 1 0 0 0 0 0 0 0 0 0 0 0 1 0 0 0
0 1 0 0 0 0 0 1 0 0 0 0 0 0 0 0 0 0 0 0 0 0 0 0 0 1 1 2 1 2 0 0 0 0 0 0 0 0 0 0 0 3 2 0

GFSNGP_con_mlcape_030.txt.gz
CAPE
0 0 0 0 0 0 0 0 0 0 0 0 0 0 0 0 0 0 0 0 0 0 0 0 0 0 0 0 0 0 0 0 0 0 0 0 0 0 0 0 18 0 0 0
0 0 0 0 0 0 0 0 0 0 0 0 0 0 0 0 0 0 0 0 0 0 0 0 0 0 0 0 0 0 0 0 0 0 0 0 0 0 42 12 3 0 0 0
0 0 0 0 0 0 0 0 0 0 0 0 0 0 0 0 0 0 0 0 0 0 0 0 0 0 0 0 0 0 0 0 0 0 0 0 0 15 0 0 0 0 0 0
0 0 0 0 0 0 0 0 0 0 0 0 0 0 0 0 0 0 0 0 0 1 2 0 9 17 2 0 0 0 0 0 0 0 0 0 0 0 0 0 0 0 0 0
0 0 0 0 0 0 0 0 0 0 0 0 0 0 0 0 0 0 0 14 36 22 19 15 13 2 0 0 0 0 0 0 0 0 0 0 0 0 0 0 0 0 0 0
0 0 0 0 0 0 0 0 0 0 0 0 0 0 0 0 0 0 0 5 13 11 12 14 10 17 22 8 9 1 0 0 0 0 0 0 0 0 0 0 0 0 0 0
0 0 0 0 0 0 0 0 0 0 0 0 0 0 0 0 0 0 0 0 0 0 0 0 0 0 2 5 10 0 3 0 0 0 0 0 0 0 0 0 0 0 0 0
0 0 0 0 0 0 0 0 0 0 0 0 0 0 0 0 0 0 0 0 0 0 0 0 0 0 0 0 0 1 0 4 0 0 0 0 0 0 0 0 0 0 0 0
0 0 0 0 0 0 0 0 0 0 0 0 0 0 0 0 0 0 1 1 0 3 1 0 0 2 0 0 0 0 0 0 0 0 0 0 0 0 0 0 0 0 1 2
0 0 0 0 0 0 0 0 0 0 0 0 0 0 0 0 2 1 1 0 1 4 2 1 2 3 5 6 9 0 0 0 0 0 0 0 0 2 2 0 0 0 6 3
0 0 0 0 0 0 0 0 0 0 0 0 0 0 2 1 1 0 3 1 4 4 3 1 1 1 5 6 9 4 0 0 0 0 0 0 0 0 3 0 0 2 7 4
0 0 0 0 0 0 0 0 0 0 0 0 0 2 2 1 0 1 2 2 2 3 2 1 2 5 1 3 2 5 15 7 4 4 9 1 0 3 0 0 0 0 7 9
0 0 0 0 0 0 0 0 0 0 0 0 0 0 0 2 0 0 1 2 2 2 1 2 1 2 2 0 1 10 16 8 8 7 0 1 2 2 1 0 0 9 20 13
0 0 0 0 0 0 0 0 0 0 0 0 0 0 1 0 0 1 2 1 1 1 1 2 1 1 1 0 1 6 2 5 9 5 3 1 9 3 3 2 1 14 19 6
0 0 0 0 0 0 0 0 0 0 0 1 0 1 0 1 1 1 1 1 1 1 1 1 2 2 2 2 2 2 3 3 2 1 2 3 5 4 1 2 8 4 6 11
0 0 0 0 0 0 0 0 0 0 1 2 0 0 0 0 1 1 1 1 2 1 1 2 2 3 3 2 3 2 1 3 3 1 0 1 1 1 3 2 7 6 9 15
0 0 0 0 0 0 0 0 0 0 0 1 1 0 0 1 1 1 1 1 2 2 2 2 3 2 2 3 2 2 2 1 5 3 2 0 1 0 4 6 5 3 1 0
0 0 0 0 0 0 0 0 0 0 0 1 0 0 1 1 1 2 1 1 1 1 2 3 3 2 2 2 3 2 1 2 3 3 3 3 3 3 3 2 1 1 1 0
0 0 0 0 0 0 0 0 0 0 0 0 0 1 0 1 1 1 1 2 2 1 1 3 3 1 2 4 2 2 2 1 2 2 3 3 3 3 2 2 2 0 0 0
0 0 0 0 0 0 0 0 0 0 0 0 0 0 0 0 0 1 1 1 3 4 6 4 2 1 2 2 3 2 3 2 2 2 3 3 2 2 2 2 1 0 0 0
0 0 0 0 0 0 0 0 0 0 0 0 0 0 0 0 0 1 1 1 2 3 5 2 2 1 1 2 2 2 2 2 2 2 2 2 2 2 2 3 1 0 0 0
0 0 0 0 0 0 0 0 0 0 0 0 0 0 0 0 0 0 1 1 2 10 1 2 3 7 2 1 1 1 2 2 2 2 2 2 2 2 2 2 2 2 0 0
0 0 0 0 0 0 0 0 0 0 0 0 0 0 0 0 0 0 1 0 3 4 1 3 11 4 2 1 1 1 1 1 1 1 1 1 2 2 1 1 1 0 0 0
0 0 0 0 0 0 0 0 0 0 0 0 0 0 0 0 0 0 0 0 0 6 0 7 10 5 0 1 1 1 0 1 1 1 1 1 1 1 0 0 0 0 0 0
0 0 0 0 0 0 0 0 0 0 0 0 0 0 0 0 0 0 0 0 0 0 0 1 4 1 1 1 1 0 1 0 0 0 0 0 0 0 0 0 0 0 0 0
0 0 0 0 0 0 0 0 0 0 0 0 0 0 0 0 0 0 0 0 0 0 0 0 0 1 0 1 1 0 0 0 0 0 0 0 0 0 0 0 0 0 0 0
0 0 0 0 0 0 0 0 0 0 0 0 0 0 0 0 0 0 0 0 0 0 0 0 0 0 0 1 1 1 1 0 0 0 0 0 0 0 0 0 1 0 0 0

GFSNGP_con_mlcape_033.txt.gz
CAPE
0 0 0 0 0 0 0 0 0 0 0 0 0 0 0 0 0 0 0 0 0 0 0 0 0 0 1 0 0 0 0 0 0 0 0 0 0 0 0 0 0 0 8 2
0 0 0 0 0 0 0 0 0 0 0 0 0 0 0 0 0 0 0 0 0 0 0 0 0 0 0 0 2 1 0 0 0 0 0 0 0 0 0 0 0 0 0 0
0 0 0 0 0 0 0 0 0 0 0 0 0 0 0 0 0 0 0 0 0 0 0 0 0 0 6 5 5 20 0 0 0 0 0 0 0 0 0 0 0 0 0 0
0 0 0 0 0 0 0 0 0 0 0 0 0 0 0 0 0 0 0 0 0 0 0 0 0 0 0 0 0 1 7 9 0 0 0 0 0 0 0 0 0 0 0 0
0 0 0 0 0 0 0 0 0 0 0 0 0 0 0 0 0 0 0 0 0 0 0 0 0 0 0 0 0 2 3 2 0 3 2 0 0 0 0 0 0 0 0 0
0 0 0 0 0 0 0 0 0 0 0 0 0 0 0 0 0 0 0 0 0 0 0 0 0 0 0 0 0 0 0 1 5 0 1 0 0 0 0 0 0 0 0 0
0 0 0 0 0 0 0 0 0 0 0 0 0 0 0 0 0 0 0 0 0 0 1 0 0 0 0 0 0 0 0 0 0 7 0 0 3 0 0 0 0 0 0 0
0 0 0 0 0 0 0 0 0 0 0 0 0 0 0 0 0 0 0 0 0 0 0 0 0 0 0 1 1 1 1 1 1 0 0 1 0 0 0 0 0 0 0 0
0 0 0 0 0 0 0 0 0 0 0 0 0 0 0 0 0 0 0 0 0 0 0 2 2 2 2 0 18 9 17 12 5 0 0 0 0 0 0 0 0 3 0 1
0 0 0 0 0 0 0 0 0 0 0 0 0 0 0 0 0 0 0 1 0 1 1 2 2 2 2 1 12 18 8 10 5 2 0 0 0 0 0 1 2 3 4 2
0 0 0 0 0 0 0 0 0 0 0 0 0 0 0 0 0 1 0 0 0 1 2 2 1 1 2 1 2 2 3 3 2 2 0 0 0 0 0 0 0 3 3 5
0 0 0 0 0 0 0 0 0 0 0 0 0 0 0 0 0 0 0 0 1 1 3 3 6 7 3 3 1 1 5 1 3 13 8 6 8 2 0 0 12 12 9 7
0 0 0 0 0 0 0 0 0 0 0 0 0 0 1 1 0 2 0 1 2 2 5 6 7 7 2 2 2 1 1 5 1 3 1 0 4 3 2 1 4 1 1 17
0 0 0 0 0 0 0 0 0 0 0 0 0 0 1 0 0 0 1 1 1 2 7 7 7 6 2 2 2 2 2 3 2 2 2 1 1 1 7 2 1 0 10 2
0 0 0 0 0 0 0 0 0 0 0 0 0 0 0 1 0 0 0 1 2 1 2 5 6 3 1 2 2 2 1 1 1 1 1 2 2 8 4 1 2 3 2 6
0 0 0 0 0 0 0 0 0 0 0 0 0 1 0 1 0 0 0 1 1 3 9 6 5 4 2 2 2 2 3 3 4 4 3 3 0 1 1 2 2 5 7 1
0 0 0 0 0 0 0 0 0 0 0 0 0 0 0 0 1 0 0 0 1 2 3 6 7 3 2 1 1 2 3 1 5 3 2 1 2 0 2 4 4 6 5 1
0 0 0 0 0 0 0 0 0 0 0 0 0 0 1 0 1 0 0 0 0 2 5 2 5 1 1 1 2 2 2 1 2 3 3 3 3 2 1 1 2 2 2 1
0 0 0 0 0 0 0 0 0 0 0 0 0 0 0 0 0 1 0 1 3 2 5 1 3 1 1 1 3 2 2 2 2 3 3 3 3 2 2 1 1 1 0 0
0 0 0 0 0 0 0 0 0 0 0 0 0 0 0 0 0 0 0 0 0 1 4 2 1 2 1 1 3 2 2 2 2 2 2 2 3 3 3 3 2 1 0 0
0 0 0 0 0 0 0 0 0 0 0 0 0 0 0 0 0 0 0 2 0 1 2 2 2 3 1 2 1 1 2 2 1 1 2 2 1 2 1 1 0 0 0 0
0 0 0 0 0 0 0 0 0 0 0 0 0 0 0 0 0 0 0 0 0 6 0 1 2 7 1 1 1 1 1 1 2 1 1 1 1 2 2 2 1 0 0 0
0 0 0 0 0 0 0 0 0 0 0 0 0 0 0 0 0 0 0 0 0 2 0 0 17 11 1 2 1 1 1 1 1 1 1 1 1 1 1 1 2 2 1 0
0 0 0 0 0 0 0 0 0 0 0 0 0 0 0 0 0 0 0 0 0 0 0 1 8 7 1 1 1 1 0 0 1 0 1 1 1 1 1 0 0 0 0 0
0 0 0 0 0 0 0 0 0 0 0 0 0 0 0 0 0 0 0 0 0 0 0 0 0 1 1 1 0 0 0 0 0 0 0 0 0 0 0 0 0 0 0 0
0 0 0 0 0 0 0 0 0 0 0 0 0 0 0 0 0 0 0 0 0 0 0 0 0 0 0 1 1 1 0 0 0 0 0 0 0 0 0 0 0 0 0 0
0 0 0 0 0 0 0 0 0 0 0 0 0 0 0 0 0 0 0 0 0 0 0 0 0 0 0 0 1 1 2 1 0 0 0 0 0 0 0 0 0 0 0 0